Date String (YYYY-MM-DD hh:mm:ss) UTC,Instrument flags,absolute air pressure of the measurement (hPa),sample flow rate (lpm),inlet stack bypass flow (lpm),air temperature of the measurement (°C),ambient temperature measured by the external sensor (°C),aerosol sample conditioner tube jacket temperature (°C),OPC LED temperature (°C),internal box temperature (°C),relative humidity of the measurement (%),span deviation,mass concentration of particles derived from Lorenz-Mie calculation of OPC scattering (μg/m³),mass concentration of particles derived from Lorenz-Mie calculation of OPC scattering (μg/m³),mass concentration of particles derived from Lorenz-Mie calculation of OPC scattering (μg/m³)
DateTimeUTC,F1_M11,P_M11,Q1_M11,Q2_M11,T1_M11,T2_M11,T3_M11,T4_M11,T5_M11,U1_M11,ZSPAN_M11,X0_M11,X2_M11,X1_M11
2024-06-13 00:00:00,SystemResetWarning,0828.8,5.00,000.00,028.4,026.2,000.0,037.0,029.6,021.0,0000.0,0011.40,0004.42,0003.62
2024-06-13 00:01:00,SystemResetWarning,0828.8,5.00,000.00,028.4,026.7,000.0,036.9,029.9,020.3,0000.0,0011.46,0004.36,0003.62
2024-06-13 00:02:00,SystemResetWarning,0828.8,4.99,000.00,028.5,027.1,000.0,036.9,030.1,020.8,0000.0,0011.36,0004.32,0003.62
2024-06-13 00:03:00,SystemResetWarning,0828.8,5.00,000.00,028.6,027.5,000.0,036.9,030.3,021.2,0000.0,0011.43,0004.30,0003.61
2024-06-13 00:04:00,SystemResetWarning,0828.8,5.00,000.00,028.7,027.8,000.0,036.9,030.5,021.0,0000.0,0012.22,0004.28,0003.61
2024-06-13 00:05:00,SystemResetWarning,0828.8,5.00,000.00,028.8,028.1,000.0,036.9,030.6,020.1,0000.0,0012.18,0004.27,0003.61
2024-06-13 00:06:00,SystemResetWarning,0828.9,4.99,000.00,028.9,028.3,000.0,036.9,030.7,019.8,0000.0,0012.04,0004.29,0003.61
2024-06-13 00:07:00,SystemResetWarning,0828.9,5.00,000.00,029.0,028.5,000.0,036.9,030.9,019.8,0000.0,0012.75,0004.32,0003.61
2024-06-13 00:08:00,SystemResetWarning,0828.8,5.00,000.00,029.1,028.7,000.0,037.0,031.0,019.8,0000.0,0013.14,0004.37,0003.61
2024-06-13 00:09:00,SystemResetWarning,0828.8,5.00,000.00,029.1,028.8,000.0,037.0,031.0,019.1,0000.0,0013.62,0004.39,0003.60
2024-06-13 00:10:00,SystemResetWarning,0828.7,4.99,000.00,029.0,027.2,000.0,037.1,030.3,019.5,0000.0,0014.24,0004.40,0003.60
2024-06-13 00:11:00,SystemResetWarning,0828.7,5.01,000.00,028.6,025.5,000.0,037.2,029.4,020.1,0000.0,0014.29,0004.43,0003.61
2024-06-13 00:12:00,SystemResetWarning,0828.7,5.01,000.00,028.5,025.8,000.0,037.1,029.5,019.7,0000.0,0014.47,0004.42,0003.61
2024-06-13 00:13:00,SystemResetWarning,0828.7,4.99,000.00,028.5,026.3,000.0,037.0,029.7,020.8,0000.0,0014.11,0004.45,0003.61
2024-06-13 00:14:00,SystemResetWarning,0828.7,5.00,000.00,028.5,026.8,000.0,037.0,030.0,019.3,0000.0,0013.63,0004.45,0003.62
2024-06-13 00:15:00,SystemResetWarning,0828.7,5.00,000.00,028.6,027.2,000.0,036.9,030.2,019.7,0000.0,0012.63,0004.46,0003.61
2024-06-13 00:16:00,SystemResetWarning,0828.7,5.00,000.00,028.6,027.6,000.0,036.9,030.4,019.1,0000.0,0012.81,0004.45,0003.62
2024-06-13 00:17:00,SystemResetWarning,0828.7,5.00,000.00,028.7,027.9,000.0,036.9,030.5,018.1,0000.0,0012.83,0004.46,0003.63
2024-06-13 00:18:00,SystemResetWarning,0828.7,5.00,000.00,028.8,028.2,000.0,037.0,030.7,018.1,0000.0,0012.12,0004.47,0003.64
2024-06-13 00:19:00,SystemResetWarning,0828.8,5.00,000.00,028.9,028.4,000.0,037.0,030.8,018.1,0000.0,0011.81,0004.48,0003.66
2024-06-13 00:20:00,SystemResetWarning,0828.8,5.00,000.00,029.0,028.6,000.0,037.0,030.9,018.1,0000.0,0011.16,0004.48,0003.66
2024-06-13 00:21:00,SystemResetWarning,0828.8,5.00,000.00,029.1,028.5,000.0,037.1,030.8,018.3,0000.0,0010.83,0004.48,0003.68
2024-06-13 00:22:00,SystemResetWarning,0828.7,4.99,000.00,028.9,026.6,000.0,037.2,029.9,018.9,0000.0,0010.19,0004.46,0003.68
2024-06-13 00:23:00,SystemResetWarning,0828.7,5.03,000.00,028.5,025.5,000.0,037.2,029.4,018.8,0000.0,0009.31,0004.51,0003.69
2024-06-13 00:24:00,SystemResetWarning,0828.7,4.99,000.00,028.5,026.1,000.0,037.1,029.6,018.4,0000.0,0009.30,0004.51,0003.69
2024-06-13 00:25:00,SystemResetWarning,0828.7,5.00,000.00,028.5,026.5,000.0,037.0,029.8,018.6,0000.0,0009.34,0004.53,0003.70
2024-06-13 00:26:00,SystemResetWarning,0828.8,5.01,000.00,028.5,027.0,000.0,037.0,030.1,018.8,0000.0,0009.46,0004.52,0003.72
2024-06-13 00:27:00,SystemResetWarning,0828.7,5.01,000.00,028.6,027.4,000.0,036.9,030.3,019.3,0000.0,0009.31,0004.53,0003.72
2024-06-13 00:28:00,SystemResetWarning,0828.8,5.00,000.00,028.7,027.7,000.0,036.9,030.4,019.4,0000.0,0009.53,0004.51,0003.72
2024-06-13 00:29:00,SystemResetWarning,0828.8,5.00,000.00,028.8,028.0,000.0,036.9,030.6,018.6,0000.0,0010.02,0004.47,0003.72
2024-06-13 00:30:00,SystemResetWarning,0828.8,4.99,000.00,028.9,028.3,000.0,037.0,030.7,019.3,0000.0,0010.53,0004.46,0003.72
2024-06-13 00:31:00,SystemResetWarning,0828.8,5.00,000.00,029.0,028.5,000.0,037.0,030.9,018.7,0000.0,0010.60,0004.47,0003.72
2024-06-13 00:32:00,SystemResetWarning,0828.8,5.00,000.00,029.1,028.6,000.0,037.0,030.9,017.9,0000.0,0010.18,0004.44,0003.72
2024-06-13 00:33:00,SystemResetWarning,0828.7,4.99,000.00,028.9,027.0,000.0,037.1,030.1,018.0,0000.0,0011.10,0004.44,0003.71
2024-06-13 00:34:00,SystemResetWarning,0828.7,5.02,000.00,028.6,025.5,000.0,037.2,029.4,018.2,0000.0,0011.07,0004.43,0003.72
2024-06-13 00:35:00,SystemResetWarning,0828.7,5.00,000.00,028.4,025.9,000.0,037.1,029.5,019.5,0000.0,0011.03,0004.44,0003.74
2024-06-13 00:36:00,SystemResetWarning,0828.8,4.99,000.00,028.4,026.4,000.0,037.0,029.8,018.6,0000.0,0011.25,0004.46,0003.75
2024-06-13 00:37:00,SystemResetWarning,0828.8,5.00,000.00,028.5,026.8,000.0,037.0,030.0,018.7,0000.0,0011.02,0004.44,0003.74
2024-06-13 00:38:00,SystemResetWarning,0828.8,5.01,000.00,028.6,027.3,000.0,036.9,030.2,018.9,0000.0,0012.55,0004.44,0003.74
2024-06-13 00:39:00,SystemResetWarning,0828.9,5.00,000.00,028.6,027.6,000.0,036.9,030.4,018.9,0000.0,0012.88,0004.43,0003.74
2024-06-13 00:40:00,SystemResetWarning,0829.0,5.00,000.00,028.7,028.0,000.0,036.9,030.6,018.5,0000.0,0013.27,0004.46,0003.74
2024-06-13 00:41:00,SystemResetWarning,0829.0,5.00,000.00,028.8,028.2,000.0,036.9,030.7,019.8,0000.0,0012.69,0004.43,0003.73
2024-06-13 00:42:00,SystemResetWarning,0829.0,5.00,000.00,028.9,028.4,000.0,037.0,030.8,019.4,0000.0,0013.04,0004.39,0003.72
2024-06-13 00:43:00,SystemResetWarning,0829.0,4.99,000.00,029.0,028.6,000.0,037.0,030.9,018.6,0000.0,0013.06,0004.41,0003.73
2024-06-13 00:44:00,SystemResetWarning,0828.9,4.98,000.00,029.0,027.4,000.0,037.1,030.3,018.8,0000.0,0012.24,0004.40,0003.73
2024-06-13 00:45:00,SystemResetWarning,0828.9,5.02,000.00,028.6,025.5,000.0,037.1,029.4,019.2,0000.0,0011.79,0004.37,0003.73
2024-06-13 00:46:00,SystemResetWarning,0828.8,5.01,000.00,028.4,025.7,000.0,037.1,029.4,019.8,0000.0,0011.79,0004.35,0003.70
2024-06-13 00:47:00,SystemResetWarning,0828.9,5.00,000.00,028.4,026.3,000.0,037.0,029.7,019.7,0000.0,0011.68,0004.35,0003.70
2024-06-13 00:48:00,SystemResetWarning,0828.9,5.00,000.00,028.5,026.7,000.0,036.9,029.9,019.7,0000.0,0011.57,0004.35,0003.70
2024-06-13 00:49:00,SystemResetWarning,0828.9,4.99,000.00,028.5,027.1,000.0,036.9,030.1,019.4,0000.0,0010.07,0004.34,0003.69
2024-06-13 00:50:00,SystemResetWarning,0828.9,5.00,000.00,028.6,027.5,000.0,036.9,030.3,019.4,0000.0,0009.62,0004.37,0003.69
2024-06-13 00:51:00,SystemResetWarning,0829.0,5.01,000.00,028.7,027.8,000.0,036.9,030.5,019.9,0000.0,0008.83,0004.39,0003.70
2024-06-13 00:52:00,SystemResetWarning,0829.0,5.00,000.00,028.8,028.1,000.0,036.9,030.7,019.4,0000.0,0009.09,0004.42,0003.71
2024-06-13 00:53:00,SystemResetWarning,0829.0,4.99,000.00,028.9,028.3,000.0,036.9,030.8,018.0,0000.0,0009.51,0004.46,0003.72
2024-06-13 00:54:00,SystemResetWarning,0829.0,5.00,000.00,029.0,028.6,000.0,037.0,030.9,017.7,0000.0,0009.65,0004.46,0003.72
2024-06-13 00:55:00,SystemResetWarning,0829.1,5.00,000.00,029.1,028.8,000.0,037.0,031.0,017.5,0000.0,0010.35,0004.45,0003.72
2024-06-13 00:56:00,SystemResetWarning,0829.2,4.99,000.00,029.1,028.0,000.0,037.1,030.6,017.6,0000.0,0010.43,0004.48,0003.72
2024-06-13 00:57:00,SystemResetWarning,0829.1,5.01,000.00,028.7,025.9,000.0,037.2,029.6,018.7,0000.0,0011.27,0004.49,0003.72
2024-06-13 00:58:00,SystemResetWarning,0829.1,5.01,000.00,028.5,025.5,000.0,037.2,029.3,019.6,0000.0,0011.36,0004.50,0003.72
2024-06-13 00:59:00,SystemResetWarning,0829.0,5.00,000.00,028.4,026.1,000.0,037.1,029.6,020.4,0000.0,0011.38,0004.50,0003.72
